Regional Weather Roundup
Issued by NWS

Home | Current Version | Previous Version | Graphics & Text | Print | Product List | Glossary On
Versions: 1 2 3 4 5 6 7 8 9 10 11 12 13 14 15 16 17 18 19 20 21 22 23 24 25 26 27 28 29 30 31 32 33 34 35 36 37 38 39 40 41 42 43 44 45 46 47 48 49 50
000
ASUS43 KOAX 300702
RWRNE

WEATHER ROUNDUP FOR NEBRASKA
NATIONAL WEATHER SERVICE OMAHA NE
200 AM CDT THU OCT 30 2014

NOTES: SATELLITE DATA IS BEING USED TO AUGMENT CLOUD COVER ABOVE
       12000 FEET.
       "FAIR" INDICATES FEW OR NO CLOUDS BELOW 12,000 FEET WITH NO
       SIGNIFICANT WEATHER AND/OR OBSTRUCTIONS TO VISIBILITY.

  * THESE STATIONS DO NOT REPORT WEATHER SUCH AS RAIN...SNOW OR FOG.

NEZ001>004-019>022-054>056-300800-
NEBRASKA PANHANDLE

CITY           SKY/WX    TMP DP  RH WIND       PRES   REMARKS
SCOTTSBLUFF    PTCLDY    37  29  72 NW7       30.20R WCI  32
ALLIANCE       CLEAR     30  26  85 W9        30.17R WCI  22
CHADRON        CLEAR     36  27  69 W8        30.16R WCI  30
KIMBALL        PTCLDY    40  27  59 NW7       30.20R WCI  35
SIDNEY         CLEAR     39  26  59 NW12      30.20R WCI  32
$$

NEZ057>060-069>072-079>082-300800-
SOUTHWEST NEBRASKA

CITY           SKY/WX    TMP DP  RH WIND       PRES   REMARKS
NORTH PLATTE   CLEAR     38  26  62 W5        30.09R WCI  34
IMPERIAL       PTCLDY    44  24  45 NW10      30.13R
LEXINGTON      CLEAR     39  32  76 NW9       30.04R WCI  33
MCCOOK         CLEAR     51  25  36 NW12      30.06R
OGALLALA       CLEAR     45  27  50 W5        30.14R
$$

NEZ005>010-023>029-035>040-094-300800-
NORTH CENTRAL NEBRASKA

CITY           SKY/WX    TMP DP  RH WIND       PRES   REMARKS
VALENTINE      PTCLDY    40  27  59 NW9       30.07R WCI  34
AINSWORTH      CLEAR     41  27  57 W7        30.06R
BROKEN BOW     CLEAR     40  29  64 N6        30.04R
O`NEILL        CLEAR     42  34  73 W8        30.01S
ORD            CLEAR     35  31  85 NW3       30.02R
THEDFORD       CLEAR     41  27  57 W9        30.09R
$$

NEZ041-046>049-061>064-073>077-083>087-300800-
SOUTH CENTRAL NEBRASKA

CITY           SKY/WX    TMP DP  RH WIND       PRES   REMARKS
GRAND ISLAND   MOCLDY    43  36  76 N6        30.00R
AURORA         CLOUDY    46  36  68 N12       29.99S
HASTINGS       MOCLDY    44  36  73 CALM      29.98R
HEBRON         MOCLDY    52  35  53 CALM      29.96F
HOLDREGE       CLEAR     44  35  69 CALM      30.00R
KEARNEY *      PTCLDY    43  34  70 NW8       30.00S
YORK           CLOUDY    45  37  76 CALM      29.99S
$$

NEZ011>018-030>034-042>045-300800-
NORTHEAST NEBRASKA

CITY           SKY/WX    TMP DP  RH WIND       PRES   REMARKS
NORFOLK        MOCLDY    44  35  70 CALM      29.99F
ALBION         MOCLDY    41  32  70 CALM      30.00S
COLUMBUS *       N/A    N/A N/A N/A MISG        N/A
FREMONT        MOCLDY    46  33  61 SE3       30.01F
TEKAMAH        LGT RAIN  46  32  58 SE12      30.02S
WAYNE          CLOUDY    44  34  69 SW3       29.99F
$$

NEZ050>053-065>068-078-088>093-300800-
SOUTHEAST NEBRASKA

CITY           SKY/WX    TMP DP  RH WIND       PRES   REMARKS
LINCOLN        MOCLDY    43  34  70 N7        30.01S
OMAHA EPPLEY   PTCLDY    47  34  60 SE7       30.03F
BEATRICE       PTCLDY    48  37  64 S3        29.97F
FALLS CITY     PTCLDY    43  35  73 SE7       30.01F
NEBRASKA CITY  MOCLDY    46  29  51 SE6       30.01F
PLATTSMOUTH    PTCLDY    42  32  66 E9        30.01F
$$

NEZ044-045-051>053-067-300800-
OMAHA AREA

CITY           SKY/WX    TMP DP  RH WIND       PRES   REMARKS
OMAHA EPPLEY   PTCLDY    47  34  60 SE7       30.03F
FREMONT        MOCLDY    46  33  61 SE3       30.01F
OFFUTT AFB     MOCLDY    45  30  57 E8        30.01F
PLATTSMOUTH    PTCLDY    42  32  66 E9        30.01F
WAHOO          CLOUDY    44  33  64 SE3       30.01F
$$



USA.gov is the U.S. government's official web portal to all federal, state and local government web resources and services.